{"data":{"norad_id":64680,"epoch":"2026-09-20T10:07:08.426784Z","epoch_age_seconds":138343,"freshness":"FRESH","line1":"1 64680U 25139S   26263.42162531  .00019923  00000+0  59822-3 0  9999","line2":"2 64680  53.1601 297.9034 0004439  27.9994 332.1246 15.34447527 70163","mean_motion":15.34447527,"eccentricity":0.0004439,"inclination_deg":53.1601,"raan_deg":297.9034,"arg_perigee_deg":27.9994,"mean_anomaly_deg":332.1246,"bstar":0.00059822,"rev_number":7016,"period_min":93.844851300673,"perigee_km":459.52539731453,"apogee_km":465.59856987216,"semimajor_km":6840.6989835933,"source":"CELESTRAK","updated_at":"2026-09-21T09:00:35.400227Z"}}